Year,Month,Day,Hour,Minute,Value (Times are PST for temperature in C)
2017,12,13,00,00,5.40
2017,12,13,00,01,5.40
2017,12,13,00,02,5.40
2017,12,13,00,03,5.40
2017,12,13,00,04,5.50
2017,12,13,00,05,5.60
2017,12,13,00,06,5.60
2017,12,13,00,07,5.70
2017,12,13,00,08,5.80
2017,12,13,00,09,5.80
2017,12,13,00,10,5.90
2017,12,13,00,11,5.90
2017,12,13,00,12,6.00
2017,12,13,00,13,6.10
2017,12,13,00,14,6.20
2017,12,13,00,15,6.20
2017,12,13,00,16,6.30
2017,12,13,00,17,6.30
2017,12,13,00,18,6.30
2017,12,13,00,19,6.30
2017,12,13,00,20,6.20
2017,12,13,00,21,6.20
2017,12,13,00,22,6.20
2017,12,13,00,23,6.10
2017,12,13,00,24,6.10
2017,12,13,00,25,6.10
2017,12,13,00,26,6.00
2017,12,13,00,27,6.00
2017,12,13,00,28,5.90
2017,12,13,00,29,5.90
2017,12,13,00,30,5.90
2017,12,13,00,31,5.90
2017,12,13,00,32,5.90
2017,12,13,00,33,5.90
2017,12,13,00,34,6.00
2017,12,13,00,35,6.10
2017,12,13,00,36,6.10
2017,12,13,00,37,6.10
2017,12,13,00,38,6.20
2017,12,13,00,39,6.20
2017,12,13,00,40,6.20
2017,12,13,00,41,6.20
2017,12,13,00,42,6.30
2017,12,13,00,43,6.30
2017,12,13,00,44,6.30
2017,12,13,00,45,6.40
2017,12,13,00,46,6.40
2017,12,13,00,47,6.50
2017,12,13,00,48,6.50
2017,12,13,00,49,6.50
2017,12,13,00,50,6.50
2017,12,13,00,51,6.50
2017,12,13,00,52,6.50
2017,12,13,00,53,6.50
2017,12,13,00,54,6.40
2017,12,13,00,55,6.40
2017,12,13,00,56,6.30
2017,12,13,00,57,6.20
2017,12,13,00,58,6.10
2017,12,13,00,59,6.00
2017,12,13,01,00,5.90
2017,12,13,01,01,5.70
2017,12,13,01,02,5.60
2017,12,13,01,03,5.50
2017,12,13,01,04,5.40
2017,12,13,01,05,5.40
2017,12,13,01,06,5.30
2017,12,13,01,07,5.20
2017,12,13,01,08,5.10
2017,12,13,01,09,5.10
2017,12,13,01,10,5.00
2017,12,13,01,11,5.00
2017,12,13,01,12,4.90
2017,12,13,01,13,4.90
2017,12,13,01,14,4.90
2017,12,13,01,15,4.80
2017,12,13,01,16,4.80
2017,12,13,01,17,4.80
2017,12,13,01,18,4.80
2017,12,13,01,19,4.70
2017,12,13,01,20,4.70
2017,12,13,01,21,4.60
2017,12,13,01,22,4.50
2017,12,13,01,23,4.50
2017,12,13,01,24,4.40
2017,12,13,01,25,4.30
2017,12,13,01,26,4.20
2017,12,13,01,27,4.10
2017,12,13,01,28,3.90
2017,12,13,01,29,3.80
2017,12,13,01,30,3.70
2017,12,13,01,31,3.60
2017,12,13,01,32,3.60
2017,12,13,01,33,3.50
2017,12,13,01,34,3.50
2017,12,13,01,35,3.40
2017,12,13,01,36,3.40
2017,12,13,01,37,3.40
2017,12,13,01,38,3.50
2017,12,13,01,39,3.60
2017,12,13,01,40,3.60
2017,12,13,01,41,3.50
2017,12,13,01,42,3.50
2017,12,13,01,43,3.50
2017,12,13,01,44,3.40
2017,12,13,01,45,3.40
2017,12,13,01,46,3.30
2017,12,13,01,47,3.30
2017,12,13,01,48,3.20
2017,12,13,01,49,3.20
2017,12,13,01,50,3.20
2017,12,13,01,51,3.20
2017,12,13,01,52,3.20
2017,12,13,01,53,3.10
2017,12,13,01,54,3.10
2017,12,13,01,55,3.10
2017,12,13,01,56,3.10
2017,12,13,01,57,3.20
2017,12,13,01,58,3.30
2017,12,13,01,59,3.30
2017,12,13,02,00,3.40
2017,12,13,02,01,3.40
2017,12,13,02,02,3.40
2017,12,13,02,03,3.40
2017,12,13,02,04,3.40
2017,12,13,02,05,3.40
2017,12,13,02,06,3.50
2017,12,13,02,07,3.60
2017,12,13,02,08,3.70
2017,12,13,02,09,3.80
2017,12,13,02,10,3.90
2017,12,13,02,11,3.90
2017,12,13,02,12,4.00
2017,12,13,02,13,4.10
2017,12,13,02,14,4.10
2017,12,13,02,15,4.20
2017,12,13,02,16,4.20
2017,12,13,02,17,4.30
2017,12,13,02,18,4.40
2017,12,13,02,19,4.40
2017,12,13,02,20,4.50
2017,12,13,02,21,4.50
2017,12,13,02,22,4.60
2017,12,13,02,23,4.60
2017,12,13,02,24,4.60
2017,12,13,02,25,4.60
2017,12,13,02,26,4.60
2017,12,13,02,27,4.60
2017,12,13,02,28,4.60
2017,12,13,02,29,4.60
2017,12,13,02,30,4.60
2017,12,13,02,31,4.60
2017,12,13,02,32,4.70
2017,12,13,02,33,4.70
2017,12,13,02,34,4.70
2017,12,13,02,35,4.70
2017,12,13,02,36,4.70
2017,12,13,02,37,4.70
2017,12,13,02,38,4.70
2017,12,13,02,39,4.80
2017,12,13,02,40,4.80
2017,12,13,02,41,4.80
2017,12,13,02,42,4.80
2017,12,13,02,43,4.70
2017,12,13,02,44,4.70
2017,12,13,02,45,4.70
2017,12,13,02,46,4.60
2017,12,13,02,47,4.50
2017,12,13,02,48,4.40
2017,12,13,02,49,4.40
2017,12,13,02,50,4.30
2017,12,13,02,51,4.30
2017,12,13,02,52,4.20
2017,12,13,02,53,4.20
2017,12,13,02,54,4.10
2017,12,13,02,55,4.10
2017,12,13,02,56,4.00
2017,12,13,02,57,4.00
2017,12,13,02,58,3.90
2017,12,13,02,59,3.90
2017,12,13,03,00,3.90
2017,12,13,03,01,4.00
2017,12,13,03,02,4.00
2017,12,13,03,03,3.90
2017,12,13,03,04,4.00
2017,12,13,03,05,4.00
2017,12,13,03,06,4.10
2017,12,13,03,07,4.20
2017,12,13,03,08,4.30
2017,12,13,03,09,4.40
2017,12,13,03,10,4.40
2017,12,13,03,11,4.40
2017,12,13,03,12,4.30
2017,12,13,03,13,4.10
2017,12,13,03,14,4.00
2017,12,13,03,15,3.80
2017,12,13,03,16,3.60
2017,12,13,03,17,3.50
2017,12,13,03,18,3.40
2017,12,13,03,19,3.30
2017,12,13,03,20,3.30
2017,12,13,03,21,3.20
2017,12,13,03,22,3.20
2017,12,13,03,23,3.20
2017,12,13,03,24,3.20
2017,12,13,03,25,3.20
2017,12,13,03,26,3.30
2017,12,13,03,27,3.20
2017,12,13,03,28,3.20
2017,12,13,03,29,3.10
2017,12,13,03,30,3.00
2017,12,13,03,31,3.00
2017,12,13,03,32,2.90
2017,12,13,03,33,3.00
2017,12,13,03,34,2.90
2017,12,13,03,35,2.90
2017,12,13,03,36,2.90
2017,12,13,03,37,3.00
2017,12,13,03,38,3.00
2017,12,13,03,39,3.00
2017,12,13,03,40,3.10
2017,12,13,03,41,3.20
2017,12,13,03,42,3.30
2017,12,13,03,43,3.30
2017,12,13,03,44,3.50
2017,12,13,03,45,3.50
2017,12,13,03,46,3.60
2017,12,13,03,47,3.70
2017,12,13,03,48,3.80
2017,12,13,03,49,3.80
2017,12,13,03,50,3.90
2017,12,13,03,51,3.90
2017,12,13,03,52,3.80
2017,12,13,03,53,3.80
2017,12,13,03,54,3.70
2017,12,13,03,55,3.60
2017,12,13,03,56,3.50
2017,12,13,03,57,3.40
2017,12,13,03,58,3.30
2017,12,13,03,59,3.30
2017,12,13,04,00,3.20
2017,12,13,04,01,3.20
2017,12,13,04,02,3.10
2017,12,13,04,03,3.10
2017,12,13,04,04,3.00
2017,12,13,04,05,2.90
2017,12,13,04,06,2.80
2017,12,13,04,07,2.70
2017,12,13,04,08,2.60
2017,12,13,04,09,2.60
2017,12,13,04,10,2.50
2017,12,13,04,11,2.40
2017,12,13,04,12,2.30
2017,12,13,04,13,2.20
2017,12,13,04,14,2.10
2017,12,13,04,15,2.10
2017,12,13,04,16,2.10
2017,12,13,04,17,2.10
2017,12,13,04,18,2.10
2017,12,13,04,19,2.10
2017,12,13,04,20,2.10
2017,12,13,04,21,2.10
2017,12,13,04,22,2.10
2017,12,13,04,23,2.10
2017,12,13,04,24,2.10
2017,12,13,04,25,2.10
2017,12,13,04,26,2.10
2017,12,13,04,27,2.00
2017,12,13,04,28,1.90
2017,12,13,04,29,1.90
2017,12,13,04,30,1.80
2017,12,13,04,31,1.80
2017,12,13,04,32,1.80
2017,12,13,04,33,1.70
2017,12,13,04,34,1.70
2017,12,13,04,35,1.70
2017,12,13,04,36,1.60
2017,12,13,04,37,1.60
2017,12,13,04,38,1.50
2017,12,13,04,39,1.50
2017,12,13,04,40,1.50
2017,12,13,04,41,1.50
2017,12,13,04,42,1.60
2017,12,13,04,43,1.70
2017,12,13,04,44,1.70
2017,12,13,04,45,1.80
2017,12,13,04,46,1.80
2017,12,13,04,47,1.80
2017,12,13,04,48,1.90
2017,12,13,04,49,1.90
2017,12,13,04,50,1.90
2017,12,13,04,51,1.90
2017,12,13,04,52,1.80
2017,12,13,04,53,1.80
2017,12,13,04,54,1.80
2017,12,13,04,55,1.70
2017,12,13,04,56,1.70
2017,12,13,04,57,1.60
2017,12,13,04,58,1.50
2017,12,13,04,59,1.50
2017,12,13,05,00,1.40
2017,12,13,05,01,1.40
2017,12,13,05,02,1.40
2017,12,13,05,03,1.50
2017,12,13,05,04,1.60
2017,12,13,05,05,1.60
2017,12,13,05,06,1.60
2017,12,13,05,07,1.60
2017,12,13,05,08,1.60
2017,12,13,05,09,1.60
2017,12,13,05,10,1.60
2017,12,13,05,11,1.70
2017,12,13,05,12,1.70
2017,12,13,05,13,1.70
2017,12,13,05,14,1.80
2017,12,13,05,15,2.00
2017,12,13,05,16,2.10
2017,12,13,05,17,2.10
2017,12,13,05,18,2.00
2017,12,13,05,19,1.90
2017,12,13,05,20,2.00
2017,12,13,05,21,2.10
2017,12,13,05,22,2.20
2017,12,13,05,23,2.40
2017,12,13,05,24,2.70
2017,12,13,05,25,3.00
2017,12,13,05,26,3.30
2017,12,13,05,27,3.60
2017,12,13,05,28,3.70
2017,12,13,05,29,3.80
2017,12,13,05,30,3.90
2017,12,13,05,31,3.90
2017,12,13,05,32,4.00
2017,12,13,05,33,3.90
2017,12,13,05,34,3.90
2017,12,13,05,35,3.70
2017,12,13,05,36,3.50
2017,12,13,05,37,3.30
2017,12,13,05,38,3.20
2017,12,13,05,39,3.00
2017,12,13,05,40,2.80
2017,12,13,05,41,2.70
2017,12,13,05,42,2.50
2017,12,13,05,43,2.40
2017,12,13,05,44,2.30
2017,12,13,05,45,2.30
2017,12,13,05,46,2.30
2017,12,13,05,47,2.30
2017,12,13,05,48,2.30
2017,12,13,05,49,2.30
2017,12,13,05,50,2.20
2017,12,13,05,51,2.20
2017,12,13,05,52,2.10
2017,12,13,05,53,2.10
2017,12,13,05,54,2.00
2017,12,13,05,55,1.90
2017,12,13,05,56,1.80
2017,12,13,05,57,1.80
2017,12,13,05,58,1.90
2017,12,13,05,59,2.00
2017,12,13,06,00,2.10
2017,12,13,06,01,2.10
2017,12,13,06,02,2.10
2017,12,13,06,03,2.00
2017,12,13,06,04,2.00
2017,12,13,06,05,1.90
2017,12,13,06,06,1.90
2017,12,13,06,07,1.90
2017,12,13,06,08,1.80
2017,12,13,06,09,1.90
2017,12,13,06,10,1.90
2017,12,13,06,11,1.90
2017,12,13,06,12,1.90
2017,12,13,06,13,1.80
2017,12,13,06,14,1.80
2017,12,13,06,15,1.80
2017,12,13,06,16,1.80
2017,12,13,06,17,1.80
2017,12,13,06,18,1.80
2017,12,13,06,19,1.70
2017,12,13,06,20,1.70
2017,12,13,06,21,1.70
2017,12,13,06,22,1.80
2017,12,13,06,23,1.80
2017,12,13,06,24,1.80
2017,12,13,06,25,1.80
2017,12,13,06,26,1.80
2017,12,13,06,27,1.80
2017,12,13,06,28,1.80
2017,12,13,06,29,1.90
2017,12,13,06,30,1.90
2017,12,13,06,31,1.90
2017,12,13,06,32,1.90
2017,12,13,06,33,1.90
2017,12,13,06,34,1.90
2017,12,13,06,35,1.90
2017,12,13,06,36,2.00
2017,12,13,06,37,2.00
2017,12,13,06,38,2.00
2017,12,13,06,39,2.10
2017,12,13,06,40,2.10
2017,12,13,06,41,2.10
2017,12,13,06,42,2.10
2017,12,13,06,43,2.10
2017,12,13,06,44,2.00
2017,12,13,06,45,2.00
2017,12,13,06,46,1.90
2017,12,13,06,47,1.90
2017,12,13,06,48,1.90
2017,12,13,06,49,1.90
2017,12,13,06,50,2.00
2017,12,13,06,51,2.00
2017,12,13,06,52,2.00
2017,12,13,06,53,2.00
2017,12,13,06,54,2.00
2017,12,13,06,55,2.00
2017,12,13,06,56,2.00
2017,12,13,06,57,2.10
2017,12,13,06,58,2.10
2017,12,13,06,59,2.00
2017,12,13,07,00,2.00
2017,12,13,07,01,1.90
2017,12,13,07,02,1.90
2017,12,13,07,03,1.90
2017,12,13,07,04,1.90
2017,12,13,07,05,1.90
2017,12,13,07,06,1.80
2017,12,13,07,07,1.80
2017,12,13,07,08,1.70
2017,12,13,07,09,1.70
2017,12,13,07,10,1.80
2017,12,13,07,11,1.80
2017,12,13,07,12,1.80
2017,12,13,07,13,1.70
2017,12,13,07,14,1.70
2017,12,13,07,15,1.70
2017,12,13,07,16,1.70
2017,12,13,07,17,1.60
2017,12,13,07,18,1.60
2017,12,13,07,19,1.50
2017,12,13,07,20,1.50
2017,12,13,07,21,1.40
2017,12,13,07,22,1.40
2017,12,13,07,23,1.40
2017,12,13,07,24,1.30
2017,12,13,07,25,1.30
2017,12,13,07,26,1.30
2017,12,13,07,27,1.30
2017,12,13,07,28,1.30
2017,12,13,07,29,1.30
2017,12,13,07,30,1.30
2017,12,13,07,31,1.30
2017,12,13,07,32,1.30
2017,12,13,07,33,1.40
2017,12,13,07,34,1.60
2017,12,13,07,35,1.60
2017,12,13,07,36,1.70
2017,12,13,07,37,1.80
2017,12,13,07,38,1.80
2017,12,13,07,39,1.80
2017,12,13,07,40,1.80
2017,12,13,07,41,1.70
2017,12,13,07,42,1.70
2017,12,13,07,43,1.60
2017,12,13,07,44,1.40
2017,12,13,07,45,1.30
2017,12,13,07,46,1.30
2017,12,13,07,47,1.30
2017,12,13,07,48,1.30
2017,12,13,07,49,1.20
2017,12,13,07,50,1.20
2017,12,13,07,51,1.10
2017,12,13,07,52,1.10
2017,12,13,07,53,1.10
2017,12,13,07,54,1.10
2017,12,13,07,55,1.20
2017,12,13,07,56,1.20
2017,12,13,07,57,1.20
2017,12,13,07,58,1.30
2017,12,13,07,59,1.30
2017,12,13,08,00,1.30
2017,12,13,08,01,1.30
2017,12,13,08,02,1.30
2017,12,13,08,03,1.30
2017,12,13,08,04,1.30
2017,12,13,08,05,1.30
2017,12,13,08,06,1.30
2017,12,13,08,07,1.30
2017,12,13,08,08,1.30
2017,12,13,08,09,1.30
2017,12,13,08,10,1.30
2017,12,13,08,11,1.30
2017,12,13,08,12,1.20
2017,12,13,08,13,1.20
2017,12,13,08,14,1.30
2017,12,13,08,15,1.30
2017,12,13,08,16,1.40
2017,12,13,08,17,1.40
2017,12,13,08,18,1.30
2017,12,13,08,19,1.30
2017,12,13,08,20,1.30
2017,12,13,08,21,1.30
2017,12,13,08,22,1.30
2017,12,13,08,23,1.30
2017,12,13,08,24,1.30
2017,12,13,08,25,1.30
2017,12,13,08,26,1.30
2017,12,13,08,27,1.40
2017,12,13,08,28,1.80
2017,12,13,08,29,2.10
2017,12,13,08,30,2.30
2017,12,13,08,31,2.60
2017,12,13,08,32,2.80
2017,12,13,08,33,3.00
2017,12,13,08,34,3.20
2017,12,13,08,35,3.30
2017,12,13,08,36,3.50
2017,12,13,08,37,3.60
2017,12,13,08,38,3.70
2017,12,13,08,39,3.80
2017,12,13,08,40,3.80
2017,12,13,08,41,3.80
2017,12,13,08,42,3.80
2017,12,13,08,43,3.70
2017,12,13,08,44,3.70
2017,12,13,08,45,3.70
2017,12,13,08,46,3.70
2017,12,13,08,47,3.70
2017,12,13,08,48,3.60
2017,12,13,08,49,3.50
2017,12,13,08,50,3.30
2017,12,13,08,51,3.10
2017,12,13,08,52,2.90
2017,12,13,08,53,2.70
2017,12,13,08,54,2.50
2017,12,13,08,55,2.40
2017,12,13,08,56,2.20
2017,12,13,08,57,2.10
2017,12,13,08,58,2.00
2017,12,13,08,59,2.00
2017,12,13,09,00,1.90
2017,12,13,09,01,1.90
2017,12,13,09,02,1.80
2017,12,13,09,03,1.80
2017,12,13,09,04,1.80
2017,12,13,09,05,1.80
2017,12,13,09,06,1.80
2017,12,13,09,07,1.90
2017,12,13,09,08,1.90
2017,12,13,09,09,1.90
2017,12,13,09,10,1.80
2017,12,13,09,11,1.80
2017,12,13,09,12,1.80
2017,12,13,09,13,1.80
2017,12,13,09,14,1.90
2017,12,13,09,15,1.90
2017,12,13,09,16,2.00
2017,12,13,09,17,2.10
2017,12,13,09,18,2.10
2017,12,13,09,19,2.20
2017,12,13,09,20,2.30
2017,12,13,09,21,2.30
2017,12,13,09,22,2.30
2017,12,13,09,23,2.30
2017,12,13,09,24,2.30
2017,12,13,09,25,2.40
2017,12,13,09,26,2.40
2017,12,13,09,27,2.40
2017,12,13,09,28,2.50
2017,12,13,09,29,2.60
2017,12,13,09,30,2.60
2017,12,13,09,31,2.60
2017,12,13,09,32,2.60
2017,12,13,09,33,2.60
2017,12,13,09,34,2.60
2017,12,13,09,35,2.60
2017,12,13,09,36,2.60
2017,12,13,09,37,2.50
2017,12,13,09,38,2.50
2017,12,13,09,39,2.50
2017,12,13,09,40,2.40
2017,12,13,09,41,2.40
2017,12,13,09,42,2.40
2017,12,13,09,43,2.40
2017,12,13,09,44,2.40
2017,12,13,09,45,2.40
2017,12,13,09,46,2.40
2017,12,13,09,47,2.40
2017,12,13,09,48,2.40
2017,12,13,09,49,2.50
2017,12,13,09,50,2.50
2017,12,13,09,51,2.60
2017,12,13,09,52,2.60
2017,12,13,09,53,2.60
2017,12,13,09,54,2.60
2017,12,13,09,55,2.60
2017,12,13,09,56,2.60
2017,12,13,09,57,2.60
2017,12,13,09,58,2.60
2017,12,13,09,59,2.70
2017,12,13,10,00,2.70
2017,12,13,10,01,2.70
2017,12,13,10,02,2.70
2017,12,13,10,03,2.70
2017,12,13,10,04,2.70
2017,12,13,10,05,2.70
2017,12,13,10,06,2.70
2017,12,13,10,07,2.80
2017,12,13,10,08,2.80
2017,12,13,10,09,2.80
2017,12,13,10,10,2.80
2017,12,13,10,11,2.90
2017,12,13,10,12,3.00
2017,12,13,10,13,3.10
2017,12,13,10,14,3.30
2017,12,13,10,15,3.40
2017,12,13,10,16,3.60
2017,12,13,10,17,3.70
2017,12,13,10,18,3.80
2017,12,13,10,19,3.90
2017,12,13,10,20,3.90
2017,12,13,10,21,3.90
2017,12,13,10,22,3.90
2017,12,13,10,23,3.80
2017,12,13,10,24,3.80
2017,12,13,10,25,3.80
2017,12,13,10,26,3.80
2017,12,13,10,27,3.80
2017,12,13,10,28,3.80
2017,12,13,10,29,3.80
2017,12,13,10,30,3.80
2017,12,13,10,31,3.80
2017,12,13,10,32,3.80
2017,12,13,10,33,3.80
2017,12,13,10,34,3.80
2017,12,13,10,35,3.70
2017,12,13,10,36,3.70
2017,12,13,10,37,3.70
2017,12,13,10,38,3.70
2017,12,13,10,39,3.70
2017,12,13,10,40,3.70
2017,12,13,10,41,3.70
2017,12,13,10,42,3.70
2017,12,13,10,43,3.80
2017,12,13,10,44,3.80
2017,12,13,10,45,3.90
2017,12,13,10,46,4.00
2017,12,13,10,47,4.00
2017,12,13,10,48,4.10
2017,12,13,10,49,4.10
2017,12,13,10,50,4.20
2017,12,13,10,51,4.30
2017,12,13,10,52,4.40
2017,12,13,10,53,4.50
2017,12,13,10,54,4.60
2017,12,13,10,55,4.80
2017,12,13,10,56,4.90
2017,12,13,10,57,4.90
2017,12,13,10,58,5.10
2017,12,13,10,59,5.10
2017,12,13,11,00,5.20
2017,12,13,11,01,5.30
2017,12,13,11,02,5.40
2017,12,13,11,03,5.50
2017,12,13,11,04,5.70
2017,12,13,11,05,5.80
2017,12,13,11,06,5.80
2017,12,13,11,07,5.90
2017,12,13,11,08,6.10
2017,12,13,11,09,6.20
2017,12,13,11,10,6.40
2017,12,13,11,11,6.50
2017,12,13,11,12,6.70
2017,12,13,11,13,6.80
2017,12,13,11,14,7.00
2017,12,13,11,15,7.10
2017,12,13,11,16,7.20
2017,12,13,11,17,7.30
2017,12,13,11,18,7.50
2017,12,13,11,19,7.50
2017,12,13,11,20,7.60
2017,12,13,11,21,7.60
2017,12,13,11,22,7.60
2017,12,13,11,23,7.60
2017,12,13,11,24,7.60
2017,12,13,11,25,7.60
2017,12,13,11,26,7.60
2017,12,13,11,27,7.60
2017,12,13,11,28,7.60
2017,12,13,11,29,7.60
2017,12,13,11,30,7.60
2017,12,13,11,31,7.70
2017,12,13,11,32,7.70
2017,12,13,11,33,7.70
2017,12,13,11,34,7.70
2017,12,13,11,35,7.70
2017,12,13,11,36,7.70
2017,12,13,11,37,7.70
2017,12,13,11,38,7.70
2017,12,13,11,39,7.70
2017,12,13,11,40,7.70
2017,12,13,11,41,7.70
2017,12,13,11,42,7.80
2017,12,13,11,43,7.80
2017,12,13,11,44,7.80
2017,12,13,11,45,7.80
2017,12,13,11,46,7.80
2017,12,13,11,47,7.80
2017,12,13,11,48,7.80
2017,12,13,11,49,7.80
2017,12,13,11,50,7.80
2017,12,13,11,51,7.90
2017,12,13,11,52,7.90
2017,12,13,11,53,7.90
2017,12,13,11,54,7.90
2017,12,13,11,55,7.90
2017,12,13,11,56,8.00
2017,12,13,11,57,8.00
2017,12,13,11,58,8.10
2017,12,13,11,59,8.10
2017,12,13,12,00,8.10
2017,12,13,12,01,8.10
2017,12,13,12,02,8.10
2017,12,13,12,03,8.20
2017,12,13,12,04,8.20
2017,12,13,12,05,8.20
2017,12,13,12,06,8.20
2017,12,13,12,07,8.20
2017,12,13,12,08,8.20
2017,12,13,12,09,8.20
2017,12,13,12,10,8.20
2017,12,13,12,11,8.30
2017,12,13,12,12,8.30
2017,12,13,12,13,8.30
2017,12,13,12,14,8.30
2017,12,13,12,15,8.30
2017,12,13,12,16,8.40
2017,12,13,12,17,8.40
2017,12,13,12,18,8.50
2017,12,13,12,19,8.60
2017,12,13,12,20,8.60
2017,12,13,12,21,8.60
2017,12,13,12,22,8.70
2017,12,13,12,23,8.70
2017,12,13,12,24,8.70
2017,12,13,12,25,8.70
2017,12,13,12,26,8.80
2017,12,13,12,27,8.80
2017,12,13,12,28,8.80
2017,12,13,12,29,8.80
2017,12,13,12,30,8.80
2017,12,13,12,31,8.80
2017,12,13,12,32,8.80
2017,12,13,12,33,8.80
2017,12,13,12,34,8.80
2017,12,13,12,35,8.80
2017,12,13,12,36,8.90
2017,12,13,12,37,8.90
2017,12,13,12,38,8.90
2017,12,13,12,39,8.90
2017,12,13,12,40,8.90
2017,12,13,12,41,8.90
2017,12,13,12,42,8.80
2017,12,13,12,43,8.90
2017,12,13,12,44,8.90
2017,12,13,12,45,8.90
2017,12,13,12,46,8.90
2017,12,13,12,47,9.00
2017,12,13,12,48,9.00
2017,12,13,12,49,9.10
2017,12,13,12,50,9.10
2017,12,13,12,51,9.10
2017,12,13,12,52,9.20
2017,12,13,12,53,9.20
2017,12,13,12,54,9.30
2017,12,13,12,55,9.30
2017,12,13,12,56,9.30
2017,12,13,12,57,9.40
2017,12,13,12,58,9.40
2017,12,13,12,59,9.40
2017,12,13,13,00,9.50
2017,12,13,13,01,9.50
2017,12,13,13,02,9.50
2017,12,13,13,03,9.50
2017,12,13,13,04,9.60
2017,12,13,13,05,9.60
2017,12,13,13,06,9.60
2017,12,13,13,07,9.50
2017,12,13,13,08,9.50
2017,12,13,13,09,9.50
2017,12,13,13,10,9.50
2017,12,13,13,11,9.60
2017,12,13,13,12,9.60
2017,12,13,13,13,9.60
2017,12,13,13,14,9.60
2017,12,13,13,15,9.60
2017,12,13,13,16,9.50
2017,12,13,13,17,9.50
2017,12,13,13,18,9.40
2017,12,13,13,19,9.40
2017,12,13,13,20,9.40
2017,12,13,13,21,9.40
2017,12,13,13,22,9.40
2017,12,13,13,23,9.40
2017,12,13,13,24,9.40
2017,12,13,13,25,9.30
2017,12,13,13,26,9.30
2017,12,13,13,27,9.30
2017,12,13,13,28,9.20
2017,12,13,13,29,9.20
2017,12,13,13,30,9.20
2017,12,13,13,31,9.20
2017,12,13,13,32,9.20
2017,12,13,13,33,9.20
2017,12,13,13,34,9.20
2017,12,13,13,35,9.30
2017,12,13,13,36,9.30
2017,12,13,13,37,9.30
2017,12,13,13,38,9.30
2017,12,13,13,39,9.30
2017,12,13,13,40,9.30
2017,12,13,13,41,9.20
2017,12,13,13,42,9.10
2017,12,13,13,43,9.00
2017,12,13,13,44,9.00
2017,12,13,13,45,8.90
2017,12,13,13,46,8.90
2017,12,13,13,47,8.90
2017,12,13,13,48,8.90
2017,12,13,13,49,8.90
2017,12,13,13,50,8.90
2017,12,13,13,51,8.90
2017,12,13,13,52,8.90
2017,12,13,13,53,8.90
2017,12,13,13,54,8.90
2017,12,13,13,55,8.90
2017,12,13,13,56,8.90
2017,12,13,13,57,8.90
2017,12,13,13,58,8.90
2017,12,13,13,59,8.90
2017,12,13,14,00,8.80
2017,12,13,14,01,8.80
2017,12,13,14,02,8.80
2017,12,13,14,03,8.80
2017,12,13,14,04,8.80
2017,12,13,14,05,8.80
2017,12,13,14,06,8.80
2017,12,13,14,07,8.80
2017,12,13,14,08,8.70
2017,12,13,14,09,8.70
2017,12,13,14,10,8.60
2017,12,13,14,11,8.60
2017,12,13,14,12,8.50
2017,12,13,14,13,8.50
2017,12,13,14,14,8.40
2017,12,13,14,15,8.40
2017,12,13,14,16,8.40
2017,12,13,14,17,8.40
2017,12,13,14,18,8.40
2017,12,13,14,19,8.40
2017,12,13,14,20,8.40
2017,12,13,14,21,8.30
2017,12,13,14,22,8.30
2017,12,13,14,23,8.30
2017,12,13,14,24,8.30
2017,12,13,14,25,8.30
2017,12,13,14,26,8.30
2017,12,13,14,27,8.20
2017,12,13,14,28,8.20
2017,12,13,14,29,8.20
2017,12,13,14,30,8.20
2017,12,13,14,31,8.10
2017,12,13,14,32,8.10
2017,12,13,14,33,8.10
2017,12,13,14,34,8.10
2017,12,13,14,35,8.00
2017,12,13,14,36,8.00
2017,12,13,14,37,7.90
2017,12,13,14,38,7.90
2017,12,13,14,39,7.90
2017,12,13,14,40,7.80
2017,12,13,14,41,7.80
2017,12,13,14,42,7.80
2017,12,13,14,43,7.80
2017,12,13,14,44,7.80
2017,12,13,14,45,7.80
2017,12,13,14,46,7.80
2017,12,13,14,47,7.80
2017,12,13,14,48,7.80
2017,12,13,14,49,7.80
2017,12,13,14,50,7.80
2017,12,13,14,51,7.80
2017,12,13,14,52,7.80
2017,12,13,14,53,7.80
2017,12,13,14,54,7.80
2017,12,13,14,55,7.80
2017,12,13,14,56,7.80
2017,12,13,14,57,7.80
2017,12,13,14,58,7.80
2017,12,13,14,59,7.80
2017,12,13,15,00,7.80
2017,12,13,15,01,7.80
2017,12,13,15,02,7.80
2017,12,13,15,03,7.80
2017,12,13,15,04,7.70
2017,12,13,15,05,7.70
2017,12,13,15,06,7.70
2017,12,13,15,07,7.70
2017,12,13,15,08,7.70
2017,12,13,15,09,7.70
2017,12,13,15,10,7.60
2017,12,13,15,11,7.60
2017,12,13,15,12,7.60
2017,12,13,15,13,7.60
2017,12,13,15,14,7.60
2017,12,13,15,15,7.60
2017,12,13,15,16,7.50
2017,12,13,15,17,7.50
2017,12,13,15,18,7.50
2017,12,13,15,19,7.50
2017,12,13,15,20,7.50
2017,12,13,15,21,7.50
2017,12,13,15,22,7.50
2017,12,13,15,23,7.40
2017,12,13,15,24,7.40
2017,12,13,15,25,7.40
2017,12,13,15,26,7.40
2017,12,13,15,27,7.40
2017,12,13,15,28,7.50
2017,12,13,15,29,7.50
2017,12,13,15,30,7.50
2017,12,13,15,31,7.40
2017,12,13,15,32,7.40
2017,12,13,15,33,7.40
2017,12,13,15,34,7.40
2017,12,13,15,35,7.40
2017,12,13,15,36,7.30
2017,12,13,15,37,7.30
2017,12,13,15,38,7.30
2017,12,13,15,39,7.30
2017,12,13,15,40,7.20
2017,12,13,15,41,7.20
2017,12,13,15,42,7.20
2017,12,13,15,43,7.20
2017,12,13,15,44,7.20
2017,12,13,15,45,7.20
2017,12,13,15,46,7.20
2017,12,13,15,47,7.20
2017,12,13,15,48,7.20
2017,12,13,15,49,7.20
2017,12,13,15,50,7.20
2017,12,13,15,51,7.10
2017,12,13,15,52,7.10
2017,12,13,15,53,7.10
2017,12,13,15,54,7.10
2017,12,13,15,55,7.10
2017,12,13,15,56,7.10
2017,12,13,15,57,7.10
2017,12,13,15,58,7.10
2017,12,13,15,59,7.00
2017,12,13,16,00,7.00
2017,12,13,16,01,7.00
2017,12,13,16,02,7.00
2017,12,13,16,03,7.00
2017,12,13,16,04,6.90
2017,12,13,16,05,6.90
2017,12,13,16,06,6.90
2017,12,13,16,07,6.90
2017,12,13,16,08,6.90
2017,12,13,16,09,6.90
2017,12,13,16,10,6.80
2017,12,13,16,11,6.80
2017,12,13,16,12,6.80
2017,12,13,16,13,6.80
2017,12,13,16,14,6.80
2017,12,13,16,15,6.70
2017,12,13,16,16,6.70
2017,12,13,16,17,6.70
2017,12,13,16,18,6.70
2017,12,13,16,19,6.70
2017,12,13,16,20,6.60
2017,12,13,16,21,6.60
2017,12,13,16,22,6.60
2017,12,13,16,23,6.50
2017,12,13,16,24,6.50
2017,12,13,16,25,6.40
2017,12,13,16,26,6.40
2017,12,13,16,27,6.40
2017,12,13,16,28,6.40
2017,12,13,16,29,6.30
2017,12,13,16,30,6.30
2017,12,13,16,31,6.30
2017,12,13,16,32,6.30
2017,12,13,16,33,6.20
2017,12,13,16,34,6.20
2017,12,13,16,35,6.10
2017,12,13,16,36,6.10
2017,12,13,16,37,6.00
2017,12,13,16,38,6.00
2017,12,13,16,39,6.00
2017,12,13,16,40,6.00
2017,12,13,16,41,6.00
2017,12,13,16,42,6.00
2017,12,13,16,43,6.00
2017,12,13,16,44,6.00
2017,12,13,16,45,5.90
2017,12,13,16,46,5.90
2017,12,13,16,47,5.90
2017,12,13,16,48,5.90
2017,12,13,16,49,5.90
2017,12,13,16,50,5.90
2017,12,13,16,51,5.80
2017,12,13,16,52,5.80
2017,12,13,16,53,5.80
2017,12,13,16,54,5.70
2017,12,13,16,55,5.70
2017,12,13,16,56,5.70
2017,12,13,16,57,5.60
2017,12,13,16,58,5.60
2017,12,13,16,59,5.60
2017,12,13,17,00,5.50
2017,12,13,17,01,5.50
2017,12,13,17,02,5.40
2017,12,13,17,03,5.40
2017,12,13,17,04,5.30
2017,12,13,17,05,5.30
2017,12,13,17,06,5.30
2017,12,13,17,07,5.20
2017,12,13,17,08,5.20
2017,12,13,17,09,5.10
2017,12,13,17,10,5.10
2017,12,13,17,11,5.10
2017,12,13,17,12,5.10
2017,12,13,17,13,5.00
2017,12,13,17,14,5.00
2017,12,13,17,15,4.90
2017,12,13,17,16,4.90
2017,12,13,17,17,4.90
2017,12,13,17,18,4.90
2017,12,13,17,19,4.90
2017,12,13,17,20,4.90
2017,12,13,17,21,4.90
2017,12,13,17,22,5.00
2017,12,13,17,23,5.00
2017,12,13,17,24,5.00
2017,12,13,17,25,5.00
2017,12,13,17,26,4.90
2017,12,13,17,27,4.90
2017,12,13,17,28,4.90
2017,12,13,17,29,4.80
2017,12,13,17,30,4.80
2017,12,13,17,31,4.80
2017,12,13,17,32,4.80
2017,12,13,17,33,4.80
2017,12,13,17,34,4.70
2017,12,13,17,35,4.70
2017,12,13,17,36,4.70
2017,12,13,17,37,4.70
2017,12,13,17,38,4.80
2017,12,13,17,39,4.80
2017,12,13,17,40,4.80
2017,12,13,17,41,4.80
2017,12,13,17,42,4.80
2017,12,13,17,43,4.70
2017,12,13,17,44,4.70
2017,12,13,17,45,4.70
2017,12,13,17,46,4.70
2017,12,13,17,47,4.70
2017,12,13,17,48,4.70
2017,12,13,17,49,4.70
2017,12,13,17,50,4.70
2017,12,13,17,51,4.70
2017,12,13,17,52,4.70
2017,12,13,17,53,4.80
2017,12,13,17,54,4.80
2017,12,13,17,55,4.80
2017,12,13,17,56,4.90
2017,12,13,17,57,4.90
2017,12,13,17,58,4.90
2017,12,13,17,59,4.90
2017,12,13,18,00,4.90
2017,12,13,18,01,4.90
2017,12,13,18,02,4.80
2017,12,13,18,03,4.80
2017,12,13,18,04,4.70
2017,12,13,18,05,4.70
2017,12,13,18,06,4.70